Terminal Aerodrome Forecast
Issued by NWS Twin Cities, MN

Home | Current Version | Previous Version | Graphics & Text | Print | Product List | Glossary On
Versions: 1 2 3 4 5 6 7 8 9 10 11 12 13 14 15 16 17 18 19 20 21 22 23 24 25 26
000
FTUS43 KMPX 191122
TAFMSP
TAF
KMSP 191122Z 1912/2018 35011KT P6SM SCT020 BKN050
      TEMPO 1912/1915 BKN020
     FM192000 36007KT P6SM SCT050 SCT250
     FM200300 VRB03KT P6SM BKN250=

USA.gov is the U.S. government's official web portal to all federal, state and local government web resources and services.